owner,sensor,date,latitude,longitude,vertical_datum,wind_speed,wind_to_direction,wind_speed_of_gust,qcFlag 
NDBC,ioos:station:wmo:42001:1,2015-09-01T00:30:00Z,25.8880,-89.6580,5.0,6.0,70.0,8.0,'1111122,1111122,1111122' 
NDBC,ioos:station:wmo:42001:1,2015-09-01T01:30:00Z,25.8880,-89.6580,5.0,6.0,80.0,7.0,'1111122,1111122,1111122' 
NDBC,ioos:station:wmo:42001:1,2015-09-01T02:30:00Z,25.8880,-89.6580,5.0,6.0,80.0,7.0,'1111122,1111122,1111122' 
NDBC,ioos:station:wmo:42001:1,2015-09-01T03:40:00Z,25.8880,-89.6580,5.0,7.0,90.0,9.0,'1111122,1111122,1111122' 
NDBC,ioos:station:wmo:42001:1,2015-09-01T04:30:00Z,25.8880,-89.6580,5.0,6.0,90.0,7.0,'1111122,1111122,1111122' 
NDBC,ioos:station:wmo:42001:1,2015-09-01T05:40:00Z,25.8880,-89.6580,5.0,7.0,100.0,8.0,'1111122,1111122,1111122' 
NDBC,ioos:station:wmo:42001:1,2015-09-01T06:10:00Z,25.8880,-89.6580,5.0,6.0,90.0,8.0,'1111122,1111122,1111122' 
NDBC,ioos:station:wmo:42001:1,2015-09-01T07:20:00Z,25.8880,-89.6580,5.0,5.0,100.0,6.0,'1111122,1111122,1111122' 
NDBC,ioos:station:wmo:42001:1,2015-09-01T10:20:00Z,25.8880,-89.6580,5.0,5.0,130.0,6.0,'1111122,1111122,1111122' 
NDBC,ioos:station:wmo:42001:1,2015-09-01T11:20:00Z,25.8880,-89.6580,5.0,5.0,120.0,6.0,'1111122,1111122,1111122' 
NDBC,ioos:station:wmo:42001:1,2015-09-01T12:10:00Z,25.8880,-89.6580,5.0,6.0,120.0,7.0,'1111122,1111122,1111122' 
NDBC,ioos:station:wmo:42001:1,2015-09-01T13:40:00Z,25.8880,-89.6580,5.0,5.0,140.0,7.0,'1111122,1111122,1111122' 
NDBC,ioos:station:wmo:42001:1,2015-09-01T14:20:00Z,25.8880,-89.6580,5.0,5.0,140.0,6.0,'1111122,1111122,1111122' 
NDBC,ioos:station:wmo:42001:1,2015-09-01T16:20:00Z,25.8880,-89.6580,5.0,4.0,150.0,5.0,'1111122,1111122,1111122' 
NDBC,ioos:station:wmo:42001:1,2015-09-01T17:20:00Z,25.8880,-89.6580,5.0,2.0,190.0,3.0,'1111122,1111122,1111122' 
NDBC,ioos:station:wmo:42001:1,2015-09-01T18:00:00Z,25.8880,-89.6580,5.0,2.0,190.0,3.0,'1111122,1111122,1111122' 
NDBC,ioos:station:wmo:42001:1,2015-09-01T19:20:00Z,25.8880,-89.6580,5.0,4.0,70.0,6.0,'1111122,1111122,1111122' 
NDBC,ioos:station:wmo:42001:1,2015-09-01T20:10:00Z,25.8880,-89.6580,5.0,4.0,100.0,5.0,'1111122,1111122,1111122' 
NDBC,ioos:station:wmo:42001:1,2015-09-01T21:40:00Z,25.8880,-89.6580,5.0,4.0,100.0,5.0,'1111122,1111122,1111122' 
NDBC,ioos:station:wmo:42001:1,2015-09-01T23:00:00Z,25.8880,-89.6580,5.0,3.0,90.0,4.0,'1111122,1111122,1111122' 
NDBC,ioos:station:wmo:42001:1,2015-09-02T00:40:00Z,25.8880,-89.6580,5.0,4.0,100.0,5.0,'1111122,1111122,1111122' 
NDBC,ioos:station:wmo:42001:1,2015-09-02T01:40:00Z,25.8880,-89.6580,5.0,3.0,30.0,5.0,'1111122,1111122,1111122' 
NDBC,ioos:station:wmo:42001:1,2015-09-02T02:40:00Z,25.8880,-89.6580,5.0,4.0,90.0,5.0,'1111122,1111122,1111122' 
NDBC,ioos:station:wmo:42001:1,2015-09-02T03:40:00Z,25.8880,-89.6580,5.0,4.0,130.0,5.0,'1111122,1111122,1111122' 
NDBC,ioos:station:wmo:42001:1,2015-09-02T04:40:00Z,25.8880,-89.6580,5.0,4.0,140.0,5.0,'1111122,1111122,1111122' 
NDBC,ioos:station:wmo:42001:1,2015-09-02T05:40:00Z,25.8880,-89.6580,5.0,5.0,140.0,6.0,'1111122,1111122,1111122' 
NDBC,ioos:station:wmo:42001:1,2015-09-02T06:40:00Z,25.8880,-89.6580,5.0,5.0,150.0,5.0,'1111122,1111122,1111122' 
NDBC,ioos:station:wmo:42001:1,2015-09-02T07:30:00Z,25.8880,-89.6580,5.0,5.0,160.0,6.0,'1111122,1111122,1111122' 
NDBC,ioos:station:wmo:42001:1,2015-09-02T09:20:00Z,25.8880,-89.6580,5.0,5.0,140.0,6.0,'1111122,1111122,1111122' 
NDBC,ioos:station:wmo:42001:1,2015-09-02T10:30:00Z,25.8880,-89.6580,5.0,5.0,140.0,7.0,'1111122,1111122,1111122' 
NDBC,ioos:station:wmo:42001:1,2015-09-02T11:40:00Z,25.8880,-89.6580,5.0,6.0,140.0,7.0,'1111122,1111122,1111122' 
NDBC,ioos:station:wmo:42001:1,2015-09-02T12:20:00Z,25.8880,-89.6580,5.0,7.0,120.0,9.0,'1111122,1111122,1111122' 
NDBC,ioos:station:wmo:42001:1,2015-09-02T12:50:00Z,25.8880,-89.6580,5.0,5.0,140.0,6.0,'1111122,1111122,1111122' 
NDBC,ioos:station:wmo:42001:1,2015-09-02T13:20:00Z,25.8880,-89.6580,5.0,6.0,140.0,7.0,'1111122,1111122,1111122' 
NDBC,ioos:station:wmo:42001:1,2015-09-02T15:00:00Z,25.8880,-89.6580,5.0,6.0,130.0,7.0,'1111122,1111122,1111122' 
NDBC,ioos:station:wmo:42001:1,2015-09-02T16:20:00Z,25.8880,-89.6580,5.0,10.0,190.0,12.0,'1111122,1111122,1111122' 
NDBC,ioos:station:wmo:42001:1,2015-09-02T17:20:00Z,25.8880,-89.6580,5.0,7.0,180.0,9.0,'1111122,1111122,1111122' 
NDBC,ioos:station:wmo:42001:1,2015-09-02T18:30:00Z,25.8880,-89.6580,5.0,5.0,160.0,6.0,'1111122,1111122,1111122' 
NDBC,ioos:station:wmo:42001:1,2015-09-02T19:20:00Z,25.8880,-89.6580,5.0,2.0,160.0,3.0,'1111122,1111122,1111122' 
NDBC,ioos:station:wmo:42001:1,2015-09-02T20:20:00Z,25.8880,-89.6580,5.0,2.0,160.0,2.0,'1111122,1111122,1111122' 
NDBC,ioos:station:wmo:42001:1,2015-09-02T21:20:00Z,25.8880,-89.6580,5.0,3.0,140.0,4.0,'1111122,1111122,1111122' 
NDBC,ioos:station:wmo:42001:1,2015-09-02T22:10:00Z,25.8880,-89.6580,5.0,4.0,120.0,5.0,'1111122,1111122,1111122' 
NDBC,ioos:station:wmo:42001:1,2015-09-03T01:00:00Z,25.8880,-89.6580,5.0,3.0,300.0,4.0,'1111122,1111122,1111122' 
NDBC,ioos:station:wmo:42001:1,2015-09-03T03:20:00Z,25.8880,-89.6580,5.0,2.0,10.0,4.0,'1111122,1111122,1111122' 
NDBC,ioos:station:wmo:42001:1,2015-09-03T04:30:00Z,25.8880,-89.6580,5.0,2.0,60.0,3.0,'1111122,1111122,1111122' 
NDBC,ioos:station:wmo:42001:1,2015-09-03T05:40:00Z,25.8880,-89.6580,5.0,8.0,110.0,9.0,'1111122,1111122,1111122' 
NDBC,ioos:station:wmo:42001:1,2015-09-03T06:20:00Z,25.8880,-89.6580,5.0,8.0,120.0,9.0,'1111122,1111122,1111122' 
NDBC,ioos:station:wmo:42001:1,2015-09-03T08:00:00Z,25.8880,-89.6580,5.0,9.0,140.0,10.0,'1111122,1111122,1111122' 
NDBC,ioos:station:wmo:42001:1,2015-09-03T08:20:00Z,25.8880,-89.6580,5.0,9.0,140.0,11.0,'1111122,1111122,1111122' 
NDBC,ioos:station:wmo:42001:1,2015-09-03T09:40:00Z,25.8880,-89.6580,5.0,7.0,160.0,9.0,'1111122,1111122,1111122' 
NDBC,ioos:station:wmo:42001:1,2015-09-03T10:40:00Z,25.8880,-89.6580,5.0,7.0,160.0,9.0,'1111122,1111122,1111122' 
NDBC,ioos:station:wmo:42001:1,2015-09-03T11:40:00Z,25.8880,-89.6580,5.0,3.0,190.0,5.0,'1111122,1111122,1111122' 
NDBC,ioos:station:wmo:42001:1,2015-09-03T12:30:00Z,25.8880,-89.6580,5.0,6.0,180.0,7.0,'1111122,1111122,1111122' 
NDBC,ioos:station:wmo:42001:1,2015-09-03T13:40:00Z,25.8880,-89.6580,5.0,3.0,190.0,4.0,'1111122,1111122,1111122' 
NDBC,ioos:station:wmo:42001:1,2015-09-03T14:40:00Z,25.8880,-89.6580,5.0,2.0,190.0,3.0,'1111122,1111122,1111122' 
NDBC,ioos:station:wmo:42001:1,2015-09-03T15:40:00Z,25.8880,-89.6580,5.0,2.0,220.0,3.0,'1111122,1111122,1111122' 
NDBC,ioos:station:wmo:42001:1,2015-09-03T16:30:00Z,25.8880,-89.6580,5.0,1.0,210.0,2.0,'1111122,1111122,1111122' 
NDBC,ioos:station:wmo:42001:1,2015-09-03T17:20:00Z,25.8880,-89.6580,5.0,1.0,230.0,3.0,'1111122,1111122,1111122' 
NDBC,ioos:station:wmo:42001:1,2015-09-03T17:30:00Z,25.8880,-89.6580,5.0,1.0,300.0,2.0,'1111122,1111122,1111122' 
NDBC,ioos:station:wmo:42001:1,2015-09-03T18:20:00Z,25.8880,-89.6580,5.0,2.0,150.0,3.0,'1111122,1111122,1111122' 
NDBC,ioos:station:wmo:42001:1,2015-09-03T18:50:00Z,25.8880,-89.6580,5.0,2.0,140.0,3.0,'1111122,1111122,1111122' 
NDBC,ioos:station:wmo:42001:1,2015-09-03T19:20:00Z,25.8880,-89.6580,5.0,2.0,160.0,3.0,'1111122,1111122,1111122' 
NDBC,ioos:station:wmo:42001:1,2015-09-03T20:20:00Z,25.8880,-89.6580,5.0,1.0,80.0,2.0,'1111122,1111122,1111122' 
NDBC,ioos:station:wmo:42001:1,2015-09-03T21:20:00Z,25.8880,-89.6580,5.0,2.0,110.0,3.0,'1111122,1111122,1111122' 
NDBC,ioos:station:wmo:42001:1,2015-09-04T00:10:00Z,25.8880,-89.6580,5.0,5.0,110.0,6.0,'1111122,1111122,1111122' 
NDBC,ioos:station:wmo:42001:1,2015-09-04T03:10:00Z,25.8880,-89.6580,5.0,4.0,130.0,5.0,'1111122,1111122,1111122' 
NDBC,ioos:station:wmo:42001:1,2015-09-04T04:30:00Z,25.8880,-89.6580,5.0,3.0,100.0,4.0,'1111122,1111122,1111122' 
NDBC,ioos:station:wmo:42001:1,2015-09-04T05:20:00Z,25.8880,-89.6580,5.0,4.0,120.0,5.0,'1111122,1111122,1111122' 
NDBC,ioos:station:wmo:42001:1,2015-09-04T09:20:00Z,25.8880,-89.6580,5.0,5.0,150.0,6.0,'1111122,1111122,1111122' 
NDBC,ioos:station:wmo:42001:1,2015-09-04T10:40:00Z,25.8880,-89.6580,5.0,5.0,140.0,6.0,'1111122,1111122,1111122' 
NDBC,ioos:station:wmo:42001:1,2015-09-04T11:40:00Z,25.8880,-89.6580,5.0,3.0,150.0,3.0,'1111122,1111122,1111122' 
NDBC,ioos:station:wmo:42001:1,2015-09-04T12:10:00Z,25.8880,-89.6580,5.0,3.0,140.0,4.0,'1111122,1111122,1111122' 
NDBC,ioos:station:wmo:42001:1,2015-09-04T13:40:00Z,25.8880,-89.6580,5.0,3.0,130.0,4.0,'1111122,1111122,1111122' 
NDBC,ioos:station:wmo:42001:1,2015-09-04T14:40:00Z,25.8880,-89.6580,5.0,3.0,120.0,4.0,'1111122,1111122,1111122' 
NDBC,ioos:station:wmo:42001:1,2015-09-04T15:40:00Z,25.8880,-89.6580,5.0,3.0,120.0,4.0,'1111122,1111122,1111122' 
NDBC,ioos:station:wmo:42001:1,2015-09-04T16:40:00Z,25.8880,-89.6580,5.0,4.0,100.0,5.0,'1111122,1111122,1111122' 
NDBC,ioos:station:wmo:42001:1,2015-09-04T17:40:00Z,25.8880,-89.6580,5.0,4.0,120.0,5.0,'1111122,1111122,1111122' 
NDBC,ioos:station:wmo:42001:1,2015-09-04T18:40:00Z,25.8880,-89.6580,5.0,3.0,100.0,4.0,'1111122,1111122,1111122' 
NDBC,ioos:station:wmo:42001:1,2015-09-04T19:40:00Z,25.8880,-89.6580,5.0,5.0,100.0,6.0,'1111122,1111122,1111122' 
NDBC,ioos:station:wmo:42001:1,2015-09-04T20:40:00Z,25.8880,-89.6580,5.0,5.0,110.0,6.0,'1111122,1111122,1111122' 
NDBC,ioos:station:wmo:42001:1,2015-09-04T21:30:00Z,25.8880,-89.6580,5.0,4.0,110.0,5.0,'1111122,1111122,1111122' 
NDBC,ioos:station:wmo:42001:1,2015-09-04T22:20:00Z,25.8880,-89.6580,5.0,4.0,100.0,5.0,'1111122,1111122,1111122' 
NDBC,ioos:station:wmo:42001:1,2015-09-04T22:40:00Z,25.8880,-89.6580,5.0,4.0,100.0,5.0,'1111122,1111122,1111122' 
NDBC,ioos:station:wmo:42001:1,2015-09-04T23:20:00Z,25.8880,-89.6580,5.0,6.0,100.0,7.0,'1111122,1111122,1111122' 
NDBC,ioos:station:wmo:42001:1,2015-09-05T00:00:00Z,25.8880,-89.6580,5.0,5.0,110.0,6.0,'1111122,1111122,1111122' 
NDBC,ioos:station:wmo:42001:1,2015-09-05T00:10:00Z,25.8880,-89.6580,5.0,5.0,110.0,6.0,'1111122,1111122,1111122' 
NDBC,ioos:station:wmo:42001:1,2015-09-05T01:50:00Z,25.8880,-89.6580,5.0,4.0,110.0,5.0,'1111122,1111122,1111122' 
NDBC,ioos:station:wmo:42001:1,2015-09-05T02:40:00Z,25.8880,-89.6580,5.0,5.0,100.0,6.0,'1111122,1111122,1111122' 
NDBC,ioos:station:wmo:42001:1,2015-09-05T07:20:00Z,25.8880,-89.6580,5.0,4.0,120.0,5.0,'1111122,1111122,1111122' 
NDBC,ioos:station:wmo:42001:1,2015-09-05T10:20:00Z,25.8880,-89.6580,5.0,4.0,130.0,5.0,'1111122,1111122,1111122' 
NDBC,ioos:station:wmo:42001:1,2015-09-05T11:20:00Z,25.8880,-89.6580,5.0,4.0,130.0,5.0,'1111122,1111122,1111122' 
NDBC,ioos:station:wmo:42001:1,2015-09-05T12:20:00Z,25.8880,-89.6580,5.0,3.0,130.0,4.0,'1111122,1111122,1111122' 
NDBC,ioos:station:wmo:42001:1,2015-09-05T13:30:00Z,25.8880,-89.6580,5.0,2.0,120.0,3.0,'1111122,1111122,1111122' 
NDBC,ioos:station:wmo:42001:1,2015-09-05T14:40:00Z,25.8880,-89.6580,5.0,2.0,140.0,3.0,'1111122,1111122,1111122' 
NDBC,ioos:station:wmo:42001:1,2015-09-05T15:40:00Z,25.8880,-89.6580,5.0,2.0,110.0,3.0,'1111122,1111122,1111122' 
NDBC,ioos:station:wmo:42001:1,2015-09-05T16:30:00Z,25.8880,-89.6580,5.0,2.0,120.0,3.0,'1111122,1111122,1111122' 
NDBC,ioos:station:wmo:42001:1,2015-09-05T17:40:00Z,25.8880,-89.6580,5.0,2.0,100.0,2.0,'1111122,1111122,1111122' 
NDBC,ioos:station:wmo:42001:1,2015-09-05T18:40:00Z,25.8880,-89.6580,5.0,1.0,90.0,2.0,'1111122,1111122,1111122' 
NDBC,ioos:station:wmo:42001:1,2015-09-05T19:40:00Z,25.8880,-89.6580,5.0,2.0,80.0,2.0,'1111122,1111122,1111122' 
NDBC,ioos:station:wmo:42001:1,2015-09-05T20:40:00Z,25.8880,-89.6580,5.0,1.0,70.0,4.0,'1111122,1111122,1111122' 
NDBC,ioos:station:wmo:42001:1,2015-09-05T21:40:00Z,25.8880,-89.6580,5.0,2.0,50.0,3.0,'1111122,1111122,1111122' 
NDBC,ioos:station:wmo:42001:1,2015-09-05T22:30:00Z,25.8880,-89.6580,5.0,2.0,40.0,2.0,'1111122,1111122,1111122' 
NDBC,ioos:station:wmo:42001:1,2015-09-05T22:50:00Z,25.8880,-89.6580,5.0,1.0,40.0,2.0,'1111122,1111122,1111122' 
NDBC,ioos:station:wmo:42001:1,2015-09-06T00:40:00Z,25.8880,-89.6580,5.0,3.0,30.0,9.0,'1111122,1111122,1111122' 
NDBC,ioos:station:wmo:42001:1,2015-09-06T01:40:00Z,25.8880,-89.6580,5.0,1.0,190.0,4.0,'1111122,1111122,1111122' 
NDBC,ioos:station:wmo:42001:1,2015-09-06T03:30:00Z,25.8880,-89.6580,5.0,2.0,20.0,4.0,'1111122,1111122,1111122' 
NDBC,ioos:station:wmo:42001:1,2015-09-06T04:20:00Z,25.8880,-89.6580,5.0,1.0,270.0,5.0,'1111122,1111122,1111122' 
NDBC,ioos:station:wmo:42001:1,2015-09-06T04:30:00Z,25.8880,-89.6580,5.0,1.0,140.0,5.0,'1111122,1111122,1111122' 
NDBC,ioos:station:wmo:42001:1,2015-09-06T06:00:00Z,25.8880,-89.6580,5.0,2.0,100.0,2.0,'1111122,1111122,1111122' 
NDBC,ioos:station:wmo:42001:1,2015-09-06T06:20:00Z,25.8880,-89.6580,5.0,1.0,90.0,2.0,'1111122,1111122,1111122' 
NDBC,ioos:station:wmo:42001:1,2015-09-06T09:10:00Z,25.8880,-89.6580,5.0,1.0,330.0,4.0,'1111122,1111122,1111122' 
NDBC,ioos:station:wmo:42001:1,2015-09-06T10:20:00Z,25.8880,-89.6580,5.0,1.0,290.0,3.0,'1111122,1111122,1111122' 
NDBC,ioos:station:wmo:42001:1,2015-09-06T11:20:00Z,25.8880,-89.6580,5.0,1.0,310.0,2.0,'1111122,1111122,1111122' 
NDBC,ioos:station:wmo:42001:1,2015-09-06T12:20:00Z,25.8880,-89.6580,5.0,2.0,310.0,3.0,'1111122,1111122,1111122' 
NDBC,ioos:station:wmo:42001:1,2015-09-06T13:20:00Z,25.8880,-89.6580,5.0,2.0,270.0,3.0,'1111122,1111122,1111122' 
NDBC,ioos:station:wmo:42001:1,2015-09-06T14:20:00Z,25.8880,-89.6580,5.0,5.0,300.0,7.0,'1111122,1111122,1111122' 
NDBC,ioos:station:wmo:42001:1,2015-09-06T15:20:00Z,25.8880,-89.6580,5.0,3.0,330.0,5.0,'1111122,1111122,1111122' 
NDBC,ioos:station:wmo:42001:1,2015-09-06T16:20:00Z,25.8880,-89.6580,5.0,2.0,300.0,3.0,'1111122,1111122,1111122' 
NDBC,ioos:station:wmo:42001:1,2015-09-06T17:40:00Z,25.8880,-89.6580,5.0,4.0,290.0,5.0,'1111122,1111122,1111122' 
NDBC,ioos:station:wmo:42001:1,2015-09-06T18:20:00Z,25.8880,-89.6580,5.0,4.0,270.0,6.0,'1111122,1111122,1111122' 
NDBC,ioos:station:wmo:42001:1,2015-09-06T19:40:00Z,25.8880,-89.6580,5.0,4.0,280.0,5.0,'1111122,1111122,1111122' 
NDBC,ioos:station:wmo:42001:1,2015-09-06T20:40:00Z,25.8880,-89.6580,5.0,4.0,20.0,7.0,'1111122,1111122,1111122' 
NDBC,ioos:station:wmo:42001:1,2015-09-06T21:20:00Z,25.8880,-89.6580,5.0,3.0,70.0,4.0,'1111122,1111122,1111122' 
NDBC,ioos:station:wmo:42001:1,2015-09-06T22:40:00Z,25.8880,-89.6580,5.0,5.0,330.0,8.0,'1111122,1111122,1111122' 
NDBC,ioos:station:wmo:42001:1,2015-09-06T23:20:00Z,25.8880,-89.6580,5.0,4.0,350.0,5.0,'1111122,1111122,1111122' 
NDBC,ioos:station:wmo:42001:1,2015-09-07T01:40:00Z,25.8880,-89.6580,5.0,3.0,30.0,4.0,'1111122,1111122,1111122' 
NDBC,ioos:station:wmo:42001:1,2015-09-07T02:40:00Z,25.8880,-89.6580,5.0,2.0,20.0,5.0,'1111122,1111122,1111122' 
NDBC,ioos:station:wmo:42001:1,2015-09-07T03:40:00Z,25.8880,-89.6580,5.0,2.0,120.0,3.0,'1111122,1111122,1111122' 
NDBC,ioos:station:wmo:42001:1,2015-09-07T04:40:00Z,25.8880,-89.6580,5.0,1.0,340.0,3.0,'1111122,1111122,1111122' 
NDBC,ioos:station:wmo:42001:1,2015-09-07T05:30:00Z,25.8880,-89.6580,5.0,2.0,350.0,3.0,'1111122,1111122,1111122' 
NDBC,ioos:station:wmo:42001:1,2015-09-07T06:00:00Z,25.8880,-89.6580,5.0,2.0,10.0,3.0,'1111122,1111122,1111122' 
NDBC,ioos:station:wmo:42001:1,2015-09-07T06:20:00Z,25.8880,-89.6580,5.0,2.0,10.0,3.0,'1111122,1111122,1111122' 
NDBC,ioos:station:wmo:42001:1,2015-09-07T08:20:00Z,25.8880,-89.6580,5.0,2.0,60.0,4.0,'1111122,1111122,1111122' 
NDBC,ioos:station:wmo:42001:1,2015-09-07T10:00:00Z,25.8880,-89.6580,5.0,2.0,20.0,4.0,'1111122,1111122,1111122' 
NDBC,ioos:station:wmo:42001:1,2015-09-07T13:20:00Z,25.8880,-89.6580,5.0,1.0,340.0,2.0,'1111122,1111122,1111122' 
NDBC,ioos:station:wmo:42001:1,2015-09-07T14:20:00Z,25.8880,-89.6580,5.0,2.0,360.0,2.0,'1111122,1111122,1111122' 
NDBC,ioos:station:wmo:42001:1,2015-09-07T15:20:00Z,25.8880,-89.6580,5.0,1.0,330.0,4.0,'1111122,1111122,1111122' 
NDBC,ioos:station:wmo:42001:1,2015-09-07T16:10:00Z,25.8880,-89.6580,5.0,3.0,350.0,4.0,'1111122,1111122,1111122' 
NDBC,ioos:station:wmo:42001:1,2015-09-07T17:10:00Z,25.8880,-89.6580,5.0,3.0,30.0,4.0,'1111122,1111122,1111122' 
NDBC,ioos:station:wmo:42001:1,2015-09-07T18:20:00Z,25.8880,-89.6580,5.0,4.0,360.0,6.0,'1111122,1111122,1111122' 
NDBC,ioos:station:wmo:42001:1,2015-09-07T18:30:00Z,25.8880,-89.6580,5.0,4.0,360.0,6.0,'1111122,1111122,1111122' 
NDBC,ioos:station:wmo:42001:1,2015-09-07T20:20:00Z,25.8880,-89.6580,5.0,2.0,70.0,6.0,'1111122,1111122,1111122' 
NDBC,ioos:station:wmo:42001:1,2015-09-07T21:40:00Z,25.8880,-89.6580,5.0,5.0,60.0,8.0,'1111122,1111122,1111122' 
NDBC,ioos:station:wmo:42001:1,2015-09-07T22:30:00Z,25.8880,-89.6580,5.0,4.0,90.0,5.0,'1111122,1111122,1111122' 
NDBC,ioos:station:wmo:42001:1,2015-09-07T23:10:00Z,25.8880,-89.6580,5.0,3.0,130.0,4.0,'1111122,1111122,1111122' 
NDBC,ioos:station:wmo:42001:1,2015-09-08T00:40:00Z,25.8880,-89.6580,5.0,2.0,150.0,3.0,'1111122,1111122,1111122' 
NDBC,ioos:station:wmo:42001:1,2015-09-08T01:40:00Z,25.8880,-89.6580,5.0,4.0,180.0,6.0,'1111122,1111122,1111122' 
NDBC,ioos:station:wmo:42001:1,2015-09-08T02:40:00Z,25.8880,-89.6580,5.0,2.0,140.0,3.0,'1111122,1111122,1111122' 
NDBC,ioos:station:wmo:42001:1,2015-09-08T03:40:00Z,25.8880,-89.6580,5.0,2.0,140.0,3.0,'1111122,1111122,1111122' 
NDBC,ioos:station:wmo:42001:1,2015-09-08T04:40:00Z,25.8880,-89.6580,5.0,3.0,170.0,4.0,'1111122,1111122,1111122' 
NDBC,ioos:station:wmo:42001:1,2015-09-08T05:30:00Z,25.8880,-89.6580,5.0,4.0,160.0,5.0,'1111122,1111122,1111122' 
NDBC,ioos:station:wmo:42001:1,2015-09-08T06:20:00Z,25.8880,-89.6580,5.0,3.0,170.0,3.0,'1111122,1111122,1111122' 
NDBC,ioos:station:wmo:42001:1,2015-09-08T08:30:00Z,25.8880,-89.6580,5.0,3.0,150.0,4.0,'1111122,1111122,1111122' 
NDBC,ioos:station:wmo:42001:1,2015-09-08T09:30:00Z,25.8880,-89.6580,5.0,3.0,170.0,4.0,'1111122,1111122,1111122' 
NDBC,ioos:station:wmo:42001:1,2015-09-08T10:30:00Z,25.8880,-89.6580,5.0,2.0,180.0,3.0,'1111122,1111122,1111122' 
NDBC,ioos:station:wmo:42001:1,2015-09-08T11:20:00Z,25.8880,-89.6580,5.0,2.0,150.0,5.0,'1111122,1111122,1111122' 
NDBC,ioos:station:wmo:42001:1,2015-09-08T12:20:00Z,25.8880,-89.6580,5.0,2.0,90.0,7.0,'1111122,1111122,1111122' 
NDBC,ioos:station:wmo:42001:1,2015-09-08T13:20:00Z,25.8880,-89.6580,5.0,2.0,120.0,2.0,'1111122,1111122,1111122' 
NDBC,ioos:station:wmo:42001:1,2015-09-08T14:20:00Z,25.8880,-89.6580,5.0,2.0,130.0,3.0,'1111122,1111122,1111122' 
NDBC,ioos:station:wmo:42001:1,2015-09-08T15:20:00Z,25.8880,-89.6580,5.0,2.0,90.0,2.0,'1111122,1111122,1111122' 
NDBC,ioos:station:wmo:42001:1,2015-09-08T16:30:00Z,25.8880,-89.6580,5.0,5.0,40.0,8.0,'1111122,1111122,1111122' 
NDBC,ioos:station:wmo:42001:1,2015-09-08T17:20:00Z,25.8880,-89.6580,5.0,2.0,100.0,3.0,'1111122,1111122,1111122' 
NDBC,ioos:station:wmo:42001:1,2015-09-08T18:20:00Z,25.8880,-89.6580,5.0,2.0,140.0,4.0,'1111122,1111122,1111122' 
NDBC,ioos:station:wmo:42001:1,2015-09-08T19:00:00Z,25.8880,-89.6580,5.0,2.0,190.0,3.0,'1111122,1111122,1111122' 
NDBC,ioos:station:wmo:42001:1,2015-09-08T20:20:00Z,25.8880,-89.6580,5.0,2.0,170.0,4.0,'1111122,1111122,1111122' 
NDBC,ioos:station:wmo:42001:1,2015-09-08T21:10:00Z,25.8880,-89.6580,5.0,2.0,150.0,3.0,'1111122,1111122,1111122' 
NDBC,ioos:station:wmo:42001:1,2015-09-08T23:20:00Z,25.8880,-89.6580,5.0,3.0,170.0,4.0,'1111122,1111122,1111122' 
NDBC,ioos:station:wmo:42001:1,2015-09-09T01:40:00Z,25.8880,-89.6580,5.0,5.0,170.0,6.0,'1111122,1111122,1111122' 
NDBC,ioos:station:wmo:42001:1,2015-09-09T02:40:00Z,25.8880,-89.6580,5.0,2.0,180.0,3.0,'1111122,1111122,1111122' 
NDBC,ioos:station:wmo:42001:1,2015-09-09T03:40:00Z,25.8880,-89.6580,5.0,3.0,200.0,4.0,'1111122,1111122,1111122' 
NDBC,ioos:station:wmo:42001:1,2015-09-09T04:30:00Z,25.8880,-89.6580,5.0,4.0,180.0,5.0,'1111122,1111122,1111122' 
NDBC,ioos:station:wmo:42001:1,2015-09-09T05:40:00Z,25.8880,-89.6580,5.0,4.0,190.0,6.0,'1111122,1111122,1111122' 
NDBC,ioos:station:wmo:42001:1,2015-09-09T06:30:00Z,25.8880,-89.6580,5.0,4.0,210.0,5.0,'1111122,1111122,1111122' 
NDBC,ioos:station:wmo:42001:1,2015-09-09T08:00:00Z,25.8880,-89.6580,5.0,4.0,190.0,5.0,'1111122,1111122,1111122' 
NDBC,ioos:station:wmo:42001:1,2015-09-09T08:20:00Z,25.8880,-89.6580,5.0,3.0,180.0,5.0,'1111122,1111122,1111122' 
NDBC,ioos:station:wmo:42001:1,2015-09-09T09:40:00Z,25.8880,-89.6580,5.0,2.0,210.0,3.0,'1111122,1111122,1111122' 
NDBC,ioos:station:wmo:42001:1,2015-09-09T10:40:00Z,25.8880,-89.6580,5.0,2.0,170.0,4.0,'1111122,1111122,1111122' 
NDBC,ioos:station:wmo:42001:1,2015-09-09T11:40:00Z,25.8880,-89.6580,5.0,2.0,140.0,6.0,'1111122,1111122,1111122' 
NDBC,ioos:station:wmo:42001:1,2015-09-09T12:20:00Z,25.8880,-89.6580,5.0,2.0,110.0,2.0,'1111122,1111122,1111122' 
NDBC,ioos:station:wmo:42001:1,2015-09-09T13:40:00Z,25.8880,-89.6580,5.0,3.0,120.0,3.0,'1111122,1111122,1111122' 
NDBC,ioos:station:wmo:42001:1,2015-09-09T14:40:00Z,25.8880,-89.6580,5.0,3.0,120.0,4.0,'1111122,1111122,1111122' 
NDBC,ioos:station:wmo:42001:1,2015-09-09T15:00:00Z,25.8880,-89.6580,5.0,3.0,120.0,4.0,'1111122,1111122,1111122' 
NDBC,ioos:station:wmo:42001:1,2015-09-09T17:10:00Z,25.8880,-89.6580,5.0,4.0,160.0,4.0,'1111122,1111122,1111122' 
NDBC,ioos:station:wmo:42001:1,2015-09-09T18:20:00Z,25.8880,-89.6580,5.0,2.0,170.0,3.0,'1111122,1111122,1111122' 
NDBC,ioos:station:wmo:42001:1,2015-09-09T19:10:00Z,25.8880,-89.6580,5.0,2.0,170.0,4.0,'1111122,1111122,1111122' 
NDBC,ioos:station:wmo:42001:1,2015-09-09T20:20:00Z,25.8880,-89.6580,5.0,1.0,290.0,4.0,'1111122,1111122,1111122' 
NDBC,ioos:station:wmo:42001:1,2015-09-09T21:10:00Z,25.8880,-89.6580,5.0,2.0,160.0,5.0,'1111122,1111122,1111122' 
NDBC,ioos:station:wmo:42001:1,2015-09-09T23:20:00Z,25.8880,-89.6580,5.0,2.0,40.0,2.0,'1111122,1111122,1111122' 
NDBC,ioos:station:wmo:42001:1,2015-09-10T00:50:00Z,25.8880,-89.6580,5.0,3.0,60.0,4.0,'1111122,1111122,1111122' 
NDBC,ioos:station:wmo:42001:1,2015-09-10T02:20:00Z,25.8880,-89.6580,5.0,4.0,90.0,4.0,'1111122,1111122,1111122' 
NDBC,ioos:station:wmo:42001:1,2015-09-10T03:40:00Z,25.8880,-89.6580,5.0,3.0,90.0,4.0,'1111122,1111122,1111122' 
NDBC,ioos:station:wmo:42001:1,2015-09-10T04:30:00Z,25.8880,-89.6580,5.0,3.0,100.0,3.0,'1111122,1111122,1111122' 
NDBC,ioos:station:wmo:42001:1,2015-09-10T05:40:00Z,25.8880,-89.6580,5.0,3.0,100.0,3.0,'1111122,1111122,1111122' 
NDBC,ioos:station:wmo:42001:1,2015-09-10T06:30:00Z,25.8880,-89.6580,5.0,3.0,100.0,4.0,'1111122,1111122,1111122' 
NDBC,ioos:station:wmo:42001:1,2015-09-10T08:00:00Z,25.8880,-89.6580,5.0,4.0,120.0,5.0,'1111122,1111122,1111122' 
NDBC,ioos:station:wmo:42001:1,2015-09-10T08:20:00Z,25.8880,-89.6580,5.0,4.0,110.0,5.0,'1111122,1111122,1111122' 
NDBC,ioos:station:wmo:42001:1,2015-09-10T09:30:00Z,25.8880,-89.6580,5.0,4.0,120.0,5.0,'1111122,1111122,1111122' 
NDBC,ioos:station:wmo:42001:1,2015-09-10T10:30:00Z,25.8880,-89.6580,5.0,4.0,120.0,5.0,'1111122,1111122,1111122' 
NDBC,ioos:station:wmo:42001:1,2015-09-10T11:40:00Z,25.8880,-89.6580,5.0,4.0,120.0,5.0,'1111122,1111122,1111122' 
NDBC,ioos:station:wmo:42001:1,2015-09-10T12:30:00Z,25.8880,-89.6580,5.0,4.0,130.0,5.0,'1111122,1111122,1111122' 
NDBC,ioos:station:wmo:42001:1,2015-09-10T14:40:00Z,25.8880,-89.6580,5.0,3.0,110.0,4.0,'1111122,1111122,1111122' 
NDBC,ioos:station:wmo:42001:1,2015-09-10T15:40:00Z,25.8880,-89.6580,5.0,3.0,100.0,4.0,'1111122,1111122,1111122' 
NDBC,ioos:station:wmo:42001:1,2015-09-10T16:30:00Z,25.8880,-89.6580,5.0,4.0,110.0,5.0,'1111122,1111122,1111122' 
NDBC,ioos:station:wmo:42001:1,2015-09-10T17:40:00Z,25.8880,-89.6580,5.0,4.0,120.0,5.0,'1111122,1111122,1111122' 
NDBC,ioos:station:wmo:42001:1,2015-09-10T18:20:00Z,25.8880,-89.6580,5.0,3.0,100.0,3.0,'1111122,1111122,1111122' 
NDBC,ioos:station:wmo:42001:1,2015-09-10T19:20:00Z,25.8880,-89.6580,5.0,3.0,120.0,4.0,'1111122,1111122,1111122' 
NDBC,ioos:station:wmo:42001:1,2015-09-10T19:50:00Z,25.8880,-89.6580,5.0,4.0,100.0,4.0,'1111122,1111122,1111122' 
NDBC,ioos:station:wmo:42001:1,2015-09-10T21:10:00Z,25.8880,-89.6580,5.0,4.0,110.0,5.0,'1111122,1111122,1111122' 
NDBC,ioos:station:wmo:42001:1,2015-09-10T23:00:00Z,25.8880,-89.6580,5.0,3.0,110.0,5.0,'1111122,1111122,1111122' 
NDBC,ioos:station:wmo:42001:1,2015-09-11T03:20:00Z,25.8880,-89.6580,5.0,5.0,110.0,6.0,'1111122,1111122,1111122' 
NDBC,ioos:station:wmo:42001:1,2015-09-11T04:20:00Z,25.8880,-89.6580,5.0,5.0,120.0,6.0,'1111122,1111122,1111122' 